Location: Kitt Peak
(31.9639°N, 111.5992°W)
Time: 14:13:00
(UTC-07:00)

ISS - Visible Passes

Search period start: 20 February 2018 00:00
Search period end: 02 March 2018 00:00
Orbit: 403 x 407 km, 51.6° (Epoch: 21 February)

Date Brightness Start Highest point End Pass type
(mag) Time Alt. Az. Time Alt. Az. Time Alt. Az.
22 Feb -0.4 06:21:27 10° SSE 06:22:37 11° SE 06:23:47 10° ESE visible
24 Feb -2.0 06:11:25 10° SSW 06:14:22 33° SE 06:17:20 10° ENE visible
25 Feb -0.9 05:20:17 10° SSE 05:22:16 15° SE 05:24:15 10° E visible
26 Feb -3.9 06:03:22 13° SW 06:06:12 75° NW 06:09:28 10° NE visible
27 Feb -2.9 05:14:03 44° SE 05:14:03 44° SE 05:17:07 10° ENE visible
28 Feb -2.6 05:57:10 22° WNW 05:58:09 26° NW 06:00:59 10° NNE visible
01 Mar -1.9 05:07:24 25° NNE 05:07:24 25° NNE 05:08:59 10° NE visible
